Simultaneous Nadir Overpasses (SNOs) Predictions

Prediction of SNOs between NOAA-19 and TERRA Satellite Orbit:

Table of predicted SNOs for the next 14.0 days since TLE Epoch: 8/10/2014
Index Date (NOAA-19) Time (NOAA-19) Lat,Lon (NOAA-19) SZA (NOAA-19 ) Date (TERRA) Time (TERRA) Lat,Lon (TERRA) SZA (TERRA ) Distance(km) Time Diff (sec)
1 08/10/2014 23:44:26 70.80,-174.34 55.35 08/10/2014 23:44:49 70.80,-174.28 55.34 2.21 23
2 08/11/2014 00:35:29 -70.66, -6.88 124.79 08/11/2014 00:34:19 -70.68, -6.82 124.77 3.07 70
3 08/13/2014 04:28:14 70.81, 114.73 56.01 08/13/2014 04:29:08 70.81, 114.65 56.01 2.69 54
4 08/13/2014 05:19:17 -70.68, -77.83 124.11 08/13/2014 05:18:38 -70.69, -77.89 124.10 2.81 39
5 08/15/2014 09:12:11 71.28, 42.98 57.16 08/15/2014 09:13:21 71.13, 44.08 57.02 42.76 70
6 08/15/2014 10:03:06 -70.75,-148.87 123.36 08/15/2014 10:02:56 -70.75,-148.89 123.37 0.61 10
7 08/17/2014 14:46:54 -70.78, 140.16 122.64 08/17/2014 14:47:14 -70.79, 140.10 122.63 2.75 20
8 08/17/2014 15:37:50 70.70, -52.45 57.30 08/17/2014 15:36:40 70.69, -52.41 57.28 1.90 70
9 08/19/2014 19:30:42 -70.86, 69.10 121.85 08/19/2014 19:31:30 -70.88, 69.15 121.83 2.70 48
10 08/19/2014 20:21:38 70.71,-123.40 58.03 08/19/2014 20:20:58 70.72,-123.45 58.02 1.84 40
11 08/22/2014 00:14:34 -71.10, -2.24 120.88 08/22/2014 00:15:46 -71.00, -1.72 120.97 21.57 72
12 08/22/2014 01:05:27 70.78, 165.56 58.82 08/22/2014 01:05:15 70.79, 165.59 58.83 1.08 12
